Year,Month,Day,Hour,Minute,Value (Times are PST for temperature in C)
2007,02,04,00,00,3.80
2007,02,04,00,01,3.80
2007,02,04,00,02,3.80
2007,02,04,00,03,3.80
2007,02,04,00,04,3.80
2007,02,04,00,05,3.80
2007,02,04,00,06,3.80
2007,02,04,00,07,3.80
2007,02,04,00,08,3.80
2007,02,04,00,09,3.80
2007,02,04,00,10,3.80
2007,02,04,00,11,3.80
2007,02,04,00,12,3.80
2007,02,04,00,13,3.80
2007,02,04,00,14,3.80
2007,02,04,00,15,3.80
2007,02,04,00,16,3.80
2007,02,04,00,17,3.80
2007,02,04,00,18,3.80
2007,02,04,00,19,3.80
2007,02,04,00,20,3.80
2007,02,04,00,21,3.80
2007,02,04,00,22,3.80
2007,02,04,00,23,3.80
2007,02,04,00,24,3.80
2007,02,04,00,25,3.80
2007,02,04,00,26,3.90
2007,02,04,00,27,3.90
2007,02,04,00,28,3.90
2007,02,04,00,29,3.90
2007,02,04,00,30,3.90
2007,02,04,00,31,3.90
2007,02,04,00,32,3.90
2007,02,04,00,33,3.90
2007,02,04,00,34,3.90
2007,02,04,00,35,3.90
2007,02,04,00,36,3.90
2007,02,04,00,37,3.90
2007,02,04,00,38,3.90
2007,02,04,00,39,3.90
2007,02,04,00,40,4.00
2007,02,04,00,41,4.00
2007,02,04,00,42,4.00
2007,02,04,00,43,4.00
2007,02,04,00,44,4.00
2007,02,04,00,45,4.00
2007,02,04,00,46,4.00
2007,02,04,00,47,4.00
2007,02,04,00,48,4.00
2007,02,04,00,49,4.00
2007,02,04,00,50,4.00
2007,02,04,00,51,4.00
2007,02,04,00,52,4.00
2007,02,04,00,53,4.00
2007,02,04,00,54,4.00
2007,02,04,00,55,4.00
2007,02,04,00,56,4.00
2007,02,04,00,57,4.00
2007,02,04,00,58,3.90
2007,02,04,00,59,4.00
2007,02,04,01,00,3.90
2007,02,04,01,01,4.00
2007,02,04,01,02,3.90
2007,02,04,01,03,3.90
2007,02,04,01,04,3.90
2007,02,04,01,05,3.90
2007,02,04,01,06,3.90
2007,02,04,01,07,3.90
2007,02,04,01,08,3.90
2007,02,04,01,09,3.90
2007,02,04,01,10,3.90
2007,02,04,01,11,3.90
2007,02,04,01,12,3.90
2007,02,04,01,13,3.90
2007,02,04,01,14,3.90
2007,02,04,01,15,3.90
2007,02,04,01,16,4.00
2007,02,04,01,17,4.00
2007,02,04,01,18,4.00
2007,02,04,01,19,4.00
2007,02,04,01,20,4.00
2007,02,04,01,21,4.00
2007,02,04,01,22,4.00
2007,02,04,01,23,4.00
2007,02,04,01,24,4.00
2007,02,04,01,25,3.90
2007,02,04,01,26,3.90
2007,02,04,01,27,3.90
2007,02,04,01,28,3.90
2007,02,04,01,29,3.90
2007,02,04,01,30,3.90
2007,02,04,01,31,3.90
2007,02,04,01,32,3.90
2007,02,04,01,33,3.90
2007,02,04,01,34,3.90
2007,02,04,01,35,3.90
2007,02,04,01,36,3.90
2007,02,04,01,37,4.00
2007,02,04,01,38,3.90
2007,02,04,01,39,4.00
2007,02,04,01,40,4.00
2007,02,04,01,41,4.00
2007,02,04,01,42,4.00
2007,02,04,01,43,4.00
2007,02,04,01,44,4.00
2007,02,04,01,45,4.00
2007,02,04,01,46,4.00
2007,02,04,01,47,4.00
2007,02,04,01,48,4.00
2007,02,04,01,49,4.00
2007,02,04,01,50,4.00
2007,02,04,01,51,4.00
2007,02,04,01,52,4.00
2007,02,04,01,53,4.00
2007,02,04,01,54,4.00
2007,02,04,01,55,4.10
2007,02,04,01,56,4.10
2007,02,04,01,57,4.10
2007,02,04,01,58,4.10
2007,02,04,01,59,4.10
2007,02,04,02,00,4.10
2007,02,04,02,01,4.10
2007,02,04,02,02,4.10
2007,02,04,02,03,4.10
2007,02,04,02,04,4.10
2007,02,04,02,05,4.10
2007,02,04,02,06,4.10
2007,02,04,02,07,4.10
2007,02,04,02,08,4.10
2007,02,04,02,09,4.10
2007,02,04,02,10,4.10
2007,02,04,02,11,4.10
2007,02,04,02,12,4.10
2007,02,04,02,13,4.10
2007,02,04,02,14,4.10
2007,02,04,02,15,4.10
2007,02,04,02,16,4.10
2007,02,04,02,17,4.10
2007,02,04,02,18,4.10
2007,02,04,02,19,4.10
2007,02,04,02,20,4.10
2007,02,04,02,21,4.10
2007,02,04,02,22,4.10
2007,02,04,02,23,4.10
2007,02,04,02,24,4.10
2007,02,04,02,25,4.10
2007,02,04,02,26,4.10
2007,02,04,02,27,4.10
2007,02,04,02,28,4.10
2007,02,04,02,29,4.10
2007,02,04,02,30,4.10
2007,02,04,02,31,4.10
2007,02,04,02,32,4.10
2007,02,04,02,33,4.10
2007,02,04,02,34,4.10
2007,02,04,02,35,4.10
2007,02,04,02,36,4.10
2007,02,04,02,37,4.10
2007,02,04,02,38,4.10
2007,02,04,02,39,4.10
2007,02,04,02,40,4.10
2007,02,04,02,41,4.10
2007,02,04,02,42,4.10
2007,02,04,02,43,4.20
2007,02,04,02,44,4.20
2007,02,04,02,45,4.20
2007,02,04,02,46,4.20
2007,02,04,02,47,4.20
2007,02,04,02,48,4.20
2007,02,04,02,49,4.20
2007,02,04,02,50,4.20
2007,02,04,02,51,4.20
2007,02,04,02,52,4.20
2007,02,04,02,53,4.20
2007,02,04,02,54,4.10
2007,02,04,02,55,4.20
2007,02,04,02,56,4.20
2007,02,04,02,57,4.20
2007,02,04,02,58,4.20
2007,02,04,02,59,4.20
2007,02,04,03,00,4.20
2007,02,04,03,01,4.20
2007,02,04,03,02,4.20
2007,02,04,03,03,4.20
2007,02,04,03,04,4.10
2007,02,04,03,05,4.10
2007,02,04,03,06,4.10
2007,02,04,03,07,4.10
2007,02,04,03,08,4.10
2007,02,04,03,09,4.10
2007,02,04,03,10,4.10
2007,02,04,03,11,4.10
2007,02,04,03,12,4.10
2007,02,04,03,13,4.10
2007,02,04,03,14,4.10
2007,02,04,03,15,4.10
2007,02,04,03,16,4.10
2007,02,04,03,17,4.10
2007,02,04,03,18,4.10
2007,02,04,03,19,4.10
2007,02,04,03,20,4.10
2007,02,04,03,21,4.10
2007,02,04,03,22,4.10
2007,02,04,03,23,4.10
2007,02,04,03,24,4.10
2007,02,04,03,25,4.10
2007,02,04,03,26,4.10
2007,02,04,03,27,4.10
2007,02,04,03,28,4.10
2007,02,04,03,29,4.10
2007,02,04,03,30,4.10
2007,02,04,03,31,4.10
2007,02,04,03,32,4.10
2007,02,04,03,33,4.10
2007,02,04,03,34,4.10
2007,02,04,03,35,4.10
2007,02,04,03,36,4.10
2007,02,04,03,37,4.10
2007,02,04,03,38,4.10
2007,02,04,03,39,4.10
2007,02,04,03,40,4.10
2007,02,04,03,41,4.10
2007,02,04,03,42,4.10
2007,02,04,03,43,4.10
2007,02,04,03,44,4.10
2007,02,04,03,45,4.10
2007,02,04,03,46,4.10
2007,02,04,03,47,4.10
2007,02,04,03,48,4.10
2007,02,04,03,49,4.10
2007,02,04,03,50,4.10
2007,02,04,03,51,4.10
2007,02,04,03,52,4.10
2007,02,04,03,53,4.10
2007,02,04,03,54,4.10
2007,02,04,03,55,4.10
2007,02,04,03,56,4.10
2007,02,04,03,57,4.10
2007,02,04,03,58,4.10
2007,02,04,03,59,4.10
2007,02,04,04,00,4.10
2007,02,04,04,01,4.10
2007,02,04,04,02,4.10
2007,02,04,04,03,4.10
2007,02,04,04,04,4.10
2007,02,04,04,05,4.10
2007,02,04,04,06,4.10
2007,02,04,04,07,4.20
2007,02,04,04,08,4.20
2007,02,04,04,09,4.20
2007,02,04,04,10,4.20
2007,02,04,04,11,4.20
2007,02,04,04,12,4.20
2007,02,04,04,13,4.20
2007,02,04,04,14,4.20
2007,02,04,04,15,4.20
2007,02,04,04,16,4.20
2007,02,04,04,17,4.20
2007,02,04,04,18,4.20
2007,02,04,04,19,4.20
2007,02,04,04,20,4.20
2007,02,04,04,21,4.20
2007,02,04,04,22,4.20
2007,02,04,04,23,4.20
2007,02,04,04,24,4.20
2007,02,04,04,25,4.20
2007,02,04,04,26,4.20
2007,02,04,04,27,4.20
2007,02,04,04,28,4.20
2007,02,04,04,29,4.20
2007,02,04,04,30,4.20
2007,02,04,04,31,4.20
2007,02,04,04,32,4.30
2007,02,04,04,33,4.30
2007,02,04,04,34,4.30
2007,02,04,04,35,4.30
2007,02,04,04,36,4.30
2007,02,04,04,37,4.30
2007,02,04,04,38,4.30
2007,02,04,04,39,4.30
2007,02,04,04,40,4.30
2007,02,04,04,41,4.30
2007,02,04,04,42,4.30
2007,02,04,04,43,4.30
2007,02,04,04,44,4.30
2007,02,04,04,45,4.30
2007,02,04,04,46,4.30
2007,02,04,04,47,4.30
2007,02,04,04,48,4.30
2007,02,04,04,49,4.30
2007,02,04,04,50,4.30
2007,02,04,04,51,4.30
2007,02,04,04,52,4.30
2007,02,04,04,53,4.30
2007,02,04,04,54,4.30
2007,02,04,04,55,4.30
2007,02,04,04,56,4.30
2007,02,04,04,57,4.30
2007,02,04,04,58,4.30
2007,02,04,04,59,4.30
2007,02,04,05,00,4.30
2007,02,04,05,01,4.30
2007,02,04,05,02,4.30
2007,02,04,05,03,4.30
2007,02,04,05,04,4.30
2007,02,04,05,05,4.30
2007,02,04,05,06,4.40
2007,02,04,05,07,4.40
2007,02,04,05,08,4.40
2007,02,04,05,09,4.40
2007,02,04,05,10,4.30
2007,02,04,05,11,4.30
2007,02,04,05,12,4.30
2007,02,04,05,13,4.30
2007,02,04,05,14,4.30
2007,02,04,05,15,4.30
2007,02,04,05,16,4.30
2007,02,04,05,17,4.30
2007,02,04,05,18,4.30
2007,02,04,05,19,4.30
2007,02,04,05,20,4.30
2007,02,04,05,21,4.30
2007,02,04,05,22,4.30
2007,02,04,05,23,4.30
2007,02,04,05,24,4.30
2007,02,04,05,25,4.30
2007,02,04,05,26,4.30
2007,02,04,05,27,4.30
2007,02,04,05,28,4.30
2007,02,04,05,29,4.40
2007,02,04,05,30,4.30
2007,02,04,05,31,4.30
2007,02,04,05,32,4.30
2007,02,04,05,33,4.40
2007,02,04,05,34,4.40
2007,02,04,05,35,4.40
2007,02,04,05,36,4.40
2007,02,04,05,37,4.40
2007,02,04,05,38,4.40
2007,02,04,05,39,4.40
2007,02,04,05,40,4.40
2007,02,04,05,41,4.40
2007,02,04,05,42,4.40
2007,02,04,05,43,4.40
2007,02,04,05,44,4.40
2007,02,04,05,45,4.40
2007,02,04,05,46,4.40
2007,02,04,05,47,4.40
2007,02,04,05,48,4.40
2007,02,04,05,49,4.40
2007,02,04,05,50,4.40
2007,02,04,05,51,4.40
2007,02,04,05,52,4.40
2007,02,04,05,53,4.40
2007,02,04,05,54,4.40
2007,02,04,05,55,4.40
2007,02,04,05,56,4.40
2007,02,04,05,57,4.40
2007,02,04,05,58,4.40
2007,02,04,05,59,4.40
2007,02,04,06,00,4.40
2007,02,04,06,01,4.40
2007,02,04,06,02,4.40
2007,02,04,06,03,4.40
2007,02,04,06,04,4.40
2007,02,04,06,05,4.40
2007,02,04,06,06,4.40
2007,02,04,06,07,4.40
2007,02,04,06,08,4.40
2007,02,04,06,09,4.40
2007,02,04,06,10,4.40
2007,02,04,06,11,4.40
2007,02,04,06,12,4.40
2007,02,04,06,13,4.40
2007,02,04,06,14,4.40
2007,02,04,06,15,4.40
2007,02,04,06,16,4.40
2007,02,04,06,17,4.40
2007,02,04,06,18,4.40
2007,02,04,06,19,4.40
2007,02,04,06,20,4.40
2007,02,04,06,21,4.40
2007,02,04,06,22,4.40
2007,02,04,06,23,4.40
2007,02,04,06,24,4.40
2007,02,04,06,25,4.40
2007,02,04,06,26,4.40
2007,02,04,06,27,4.40
2007,02,04,06,28,4.40
2007,02,04,06,29,4.40
2007,02,04,06,30,4.40
2007,02,04,06,31,4.40
2007,02,04,06,32,4.40
2007,02,04,06,33,4.50
2007,02,04,06,34,4.50
2007,02,04,06,35,4.50
2007,02,04,06,36,4.40
2007,02,04,06,37,4.50
2007,02,04,06,38,4.50
2007,02,04,06,39,4.50
2007,02,04,06,40,4.50
2007,02,04,06,41,4.50
2007,02,04,06,42,4.50
2007,02,04,06,43,4.50
2007,02,04,06,44,4.50
2007,02,04,06,45,4.50
2007,02,04,06,46,4.50
2007,02,04,06,47,4.50
2007,02,04,06,48,4.50
2007,02,04,06,49,4.50
2007,02,04,06,50,4.50
2007,02,04,06,51,4.50
2007,02,04,06,52,4.50
2007,02,04,06,53,4.50
2007,02,04,06,54,4.50
2007,02,04,06,55,4.50
2007,02,04,06,56,4.50
2007,02,04,06,57,4.50
2007,02,04,06,58,4.50
2007,02,04,06,59,4.50
2007,02,04,07,00,4.50
2007,02,04,07,01,4.50
2007,02,04,07,02,4.50
2007,02,04,07,03,4.50
2007,02,04,07,04,4.50
2007,02,04,07,05,4.50
2007,02,04,07,06,4.50
2007,02,04,07,07,4.50
2007,02,04,07,08,4.50
2007,02,04,07,09,4.50
2007,02,04,07,10,4.50
2007,02,04,07,11,4.50
2007,02,04,07,12,4.50
2007,02,04,07,13,4.50
2007,02,04,07,14,4.50
2007,02,04,07,15,4.50
2007,02,04,07,16,4.50
2007,02,04,07,17,4.50
2007,02,04,07,18,4.50
2007,02,04,07,19,4.70
2007,02,04,07,20,4.70
2007,02,04,07,21,4.80
2007,02,04,07,22,4.70
2007,02,04,07,23,4.70
2007,02,04,07,24,4.70
2007,02,04,07,25,4.70
2007,02,04,07,26,4.70
2007,02,04,07,27,4.70
2007,02,04,07,28,4.70
2007,02,04,07,29,4.70
2007,02,04,07,30,4.70
2007,02,04,07,31,4.70
2007,02,04,07,32,4.70
2007,02,04,07,33,4.70
2007,02,04,07,34,4.70
2007,02,04,07,35,4.70
2007,02,04,07,36,4.70
2007,02,04,07,37,4.70
2007,02,04,07,38,4.70
2007,02,04,07,39,4.70
2007,02,04,07,40,4.70
2007,02,04,07,41,4.70
2007,02,04,07,42,4.70
2007,02,04,07,43,4.70
2007,02,04,09,42,4.90
2007,02,04,09,43,4.90
2007,02,04,09,44,4.90
2007,02,04,09,45,4.90
2007,02,04,09,46,4.90
2007,02,04,09,47,4.90
2007,02,04,09,48,4.90
2007,02,04,09,49,5.00
2007,02,04,09,50,5.00
2007,02,04,09,51,4.90
2007,02,04,09,52,4.90
2007,02,04,09,53,4.90
2007,02,04,09,54,4.90
2007,02,04,09,55,4.90
2007,02,04,09,56,4.90
2007,02,04,09,57,4.90
2007,02,04,09,58,4.90
2007,02,04,09,59,4.90
2007,02,04,10,00,4.90
2007,02,04,10,01,4.90
2007,02,04,10,02,4.90
2007,02,04,10,03,4.90
2007,02,04,10,04,4.90
2007,02,04,10,05,4.90
2007,02,04,10,06,5.00
2007,02,04,10,07,5.00
2007,02,04,10,08,5.00
2007,02,04,10,09,5.00
2007,02,04,10,10,5.00
2007,02,04,10,11,5.00
2007,02,04,10,12,5.10
2007,02,04,10,13,5.10
2007,02,04,10,14,5.10
2007,02,04,10,15,5.10
2007,02,04,10,16,5.10
2007,02,04,10,17,5.10
2007,02,04,10,18,5.10
2007,02,04,10,19,5.10
2007,02,04,10,20,5.10
2007,02,04,10,21,5.10
2007,02,04,10,22,5.10
2007,02,04,10,23,5.10
2007,02,04,10,24,5.10
2007,02,04,10,25,5.10
2007,02,04,10,26,5.10
2007,02,04,10,27,5.20
2007,02,04,10,28,5.20
2007,02,04,10,29,5.20
2007,02,04,10,30,5.20
2007,02,04,10,31,5.20
2007,02,04,10,32,5.20
2007,02,04,10,33,5.20
2007,02,04,10,34,5.20
2007,02,04,10,35,5.20
2007,02,04,10,36,5.20
2007,02,04,10,37,5.20
2007,02,04,10,38,5.20
2007,02,04,10,39,5.20
2007,02,04,10,40,5.20
2007,02,04,10,41,5.20
2007,02,04,10,42,5.20
2007,02,04,10,43,5.30
2007,02,04,10,44,5.30
2007,02,04,10,45,5.30
2007,02,04,10,46,5.30
2007,02,04,10,47,5.30
2007,02,04,10,48,5.30
2007,02,04,10,49,5.30
2007,02,04,10,50,5.30
2007,02,04,10,51,5.30
2007,02,04,10,52,5.30
2007,02,04,10,53,5.40
2007,02,04,10,54,5.40
2007,02,04,10,55,5.40
2007,02,04,10,56,5.40
2007,02,04,10,57,5.40
2007,02,04,10,58,5.40
2007,02,04,10,59,5.40
2007,02,04,11,00,5.40
2007,02,04,11,01,5.40
2007,02,04,11,02,5.40
2007,02,04,11,03,5.40
2007,02,04,11,04,5.40
2007,02,04,11,05,5.40
2007,02,04,11,06,5.40
2007,02,04,11,07,5.40
2007,02,04,11,08,5.40
2007,02,04,11,09,5.40
2007,02,04,11,10,5.40
2007,02,04,11,11,5.40
2007,02,04,11,12,5.50
2007,02,04,11,13,5.50
2007,02,04,11,14,5.50
2007,02,04,11,15,5.50
2007,02,04,11,16,5.50
2007,02,04,11,17,5.50
2007,02,04,11,18,5.50
2007,02,04,11,19,5.50
2007,02,04,11,20,5.50
2007,02,04,11,21,5.60
2007,02,04,11,22,5.60
2007,02,04,11,23,5.60
2007,02,04,11,24,5.60
2007,02,04,11,25,5.60
2007,02,04,11,26,5.60
2007,02,04,11,27,5.60
2007,02,04,11,28,5.60
2007,02,04,11,29,5.60
2007,02,04,11,30,5.70
2007,02,04,11,31,5.70
2007,02,04,11,32,5.70
2007,02,04,11,33,5.70
2007,02,04,11,34,5.70
2007,02,04,11,35,5.70
2007,02,04,11,36,5.70
2007,02,04,11,37,5.70
2007,02,04,11,38,5.70
2007,02,04,11,39,5.70
2007,02,04,11,40,5.70
2007,02,04,11,41,5.70
2007,02,04,11,42,5.70
2007,02,04,11,43,5.70
2007,02,04,11,44,5.70
2007,02,04,11,45,5.70
2007,02,04,11,46,5.70
2007,02,04,11,47,5.70
2007,02,04,11,48,5.70
2007,02,04,11,49,5.70
2007,02,04,11,50,5.70
2007,02,04,11,51,5.70
2007,02,04,11,52,5.70
2007,02,04,11,53,5.70
2007,02,04,11,54,5.70
2007,02,04,11,55,5.70
2007,02,04,11,56,5.70
2007,02,04,11,57,5.70
2007,02,04,11,58,5.70
2007,02,04,11,59,5.70
2007,02,04,12,00,5.70
2007,02,04,12,01,5.70
2007,02,04,12,02,5.70
2007,02,04,12,03,5.70
2007,02,04,12,04,5.70
2007,02,04,12,05,5.80
2007,02,04,12,06,5.80
2007,02,04,12,07,5.80
2007,02,04,12,08,5.80
2007,02,04,12,09,5.80
2007,02,04,12,10,5.90
2007,02,04,12,11,5.90
2007,02,04,12,12,5.90
2007,02,04,12,13,5.90
2007,02,04,12,14,5.90
2007,02,04,12,15,5.90
2007,02,04,12,16,5.90
2007,02,04,12,17,5.80
2007,02,04,12,18,5.90
2007,02,04,12,19,5.90
2007,02,04,12,20,5.90
2007,02,04,12,21,5.90
2007,02,04,12,22,5.90
2007,02,04,12,23,5.90
2007,02,04,12,24,5.90
2007,02,04,12,25,6.00
2007,02,04,12,26,6.00
2007,02,04,12,27,6.00
2007,02,04,12,28,5.90
2007,02,04,12,29,5.90
2007,02,04,12,30,5.90
2007,02,04,12,31,5.90
2007,02,04,12,32,5.90
2007,02,04,12,33,6.00
2007,02,04,12,34,6.00
2007,02,04,12,35,6.00
2007,02,04,12,36,6.00
2007,02,04,12,37,6.00
2007,02,04,12,38,6.00
2007,02,04,12,39,6.00
2007,02,04,12,40,6.00
2007,02,04,12,41,6.00
2007,02,04,12,42,6.10
2007,02,04,12,43,6.10
2007,02,04,12,44,6.10
2007,02,04,12,45,6.10
2007,02,04,12,46,6.10
2007,02,04,12,47,6.10
2007,02,04,12,48,6.10
2007,02,04,12,49,6.10
2007,02,04,12,50,6.10
2007,02,04,12,51,6.10
2007,02,04,12,52,6.10
2007,02,04,12,53,6.10
2007,02,04,12,54,6.10
2007,02,04,12,55,6.20
2007,02,04,12,56,6.20
2007,02,04,12,57,6.20
2007,02,04,12,58,6.20
2007,02,04,12,59,6.20
2007,02,04,13,00,6.20
2007,02,04,13,01,6.20
2007,02,04,13,02,6.20
2007,02,04,13,03,6.20
2007,02,04,13,04,6.20
2007,02,04,13,05,6.20
2007,02,04,13,06,6.20
2007,02,04,13,07,6.20
2007,02,04,13,08,6.20
2007,02,04,13,09,6.20
2007,02,04,13,10,6.20
2007,02,04,13,11,6.20
2007,02,04,13,12,6.20
2007,02,04,13,13,6.20
2007,02,04,13,14,6.20
2007,02,04,13,15,6.20
2007,02,04,13,16,6.20
2007,02,04,13,17,6.30
2007,02,04,13,18,6.30
2007,02,04,13,19,6.30
2007,02,04,13,20,6.30
2007,02,04,13,21,6.30
2007,02,04,13,22,6.30
2007,02,04,13,23,6.30
2007,02,04,13,24,6.30
2007,02,04,13,25,6.30
2007,02,04,13,26,6.30
2007,02,04,13,27,6.30
2007,02,04,13,28,6.30
2007,02,04,13,29,6.30
2007,02,04,13,30,6.30
2007,02,04,13,31,6.40
2007,02,04,13,32,6.40
2007,02,04,13,33,6.40
2007,02,04,13,34,6.40
2007,02,04,13,35,6.40
2007,02,04,13,36,6.40
2007,02,04,13,37,6.40
2007,02,04,13,38,6.50
2007,02,04,13,39,6.50
2007,02,04,13,40,6.50
2007,02,04,13,41,6.50
2007,02,04,13,42,6.50
2007,02,04,13,43,6.50
2007,02,04,13,44,6.50
2007,02,04,13,45,6.50
2007,02,04,13,46,6.50
2007,02,04,13,47,6.50
2007,02,04,13,48,6.50
2007,02,04,13,49,6.50
2007,02,04,13,50,6.50
2007,02,04,13,51,6.50
2007,02,04,13,52,6.50
2007,02,04,13,53,6.40
2007,02,04,13,54,6.40
2007,02,04,13,55,6.40
2007,02,04,13,56,6.40
2007,02,04,13,57,6.40
2007,02,04,13,58,6.40
2007,02,04,13,59,6.40
2007,02,04,14,00,6.40
2007,02,04,14,01,6.40
2007,02,04,14,02,6.40
2007,02,04,14,03,6.40
2007,02,04,14,04,6.40
2007,02,04,14,05,6.40
2007,02,04,14,06,6.40
2007,02,04,14,07,6.40
2007,02,04,14,08,6.40
2007,02,04,14,09,6.40
2007,02,04,14,10,6.40
2007,02,04,14,11,6.40
2007,02,04,14,12,6.40
2007,02,04,14,13,6.40
2007,02,04,14,14,6.40
2007,02,04,14,15,6.40
2007,02,04,14,16,6.40
2007,02,04,14,17,6.40
2007,02,04,14,18,6.40
2007,02,04,14,19,6.40
2007,02,04,14,20,6.40
2007,02,04,14,21,6.40
2007,02,04,14,22,6.40
2007,02,04,14,23,6.40
2007,02,04,14,24,6.40
2007,02,04,14,25,6.40
2007,02,04,14,26,6.40
2007,02,04,14,27,6.50
2007,02,04,14,28,6.50
2007,02,04,14,29,6.50
2007,02,04,14,30,6.50
2007,02,04,14,31,6.50
2007,02,04,14,32,6.50
2007,02,04,14,33,6.50
2007,02,04,14,34,6.50
2007,02,04,14,35,6.50
2007,02,04,14,36,6.50
2007,02,04,14,37,6.50
2007,02,04,14,38,6.60
2007,02,04,14,39,6.60
2007,02,04,14,40,6.60
2007,02,04,14,41,6.60
2007,02,04,14,42,6.60
2007,02,04,14,43,6.60
2007,02,04,14,44,6.60
2007,02,04,14,45,6.60
2007,02,04,14,46,6.60
2007,02,04,14,47,6.60
2007,02,04,14,48,6.60
2007,02,04,14,49,6.70
2007,02,04,14,50,6.70
2007,02,04,14,51,6.70
2007,02,04,14,52,6.70
2007,02,04,14,53,6.70
2007,02,04,14,54,6.70
2007,02,04,14,55,6.70
2007,02,04,14,56,6.70
2007,02,04,14,57,6.70
2007,02,04,14,58,6.70
2007,02,04,14,59,6.70
2007,02,04,15,00,6.70
2007,02,04,15,01,6.70
2007,02,04,15,02,6.70
2007,02,04,15,03,6.70
2007,02,04,15,04,6.70
2007,02,04,15,05,6.70
2007,02,04,15,06,6.70
2007,02,04,15,07,6.70
2007,02,04,15,08,6.70
2007,02,04,15,09,6.70
2007,02,04,15,10,6.70
2007,02,04,15,11,6.70
2007,02,04,15,12,6.70
2007,02,04,15,13,6.70
2007,02,04,15,14,6.70
2007,02,04,15,15,6.70
2007,02,04,15,16,6.70
2007,02,04,15,17,6.70
2007,02,04,15,18,6.70
2007,02,04,15,19,6.70
2007,02,04,15,20,6.70
2007,02,04,15,21,6.70
2007,02,04,15,22,6.70
2007,02,04,15,23,6.70
2007,02,04,15,24,6.70
2007,02,04,15,25,6.70
2007,02,04,15,26,6.70
2007,02,04,15,27,6.70
2007,02,04,15,28,6.70
2007,02,04,15,29,6.70
2007,02,04,15,30,6.70
2007,02,04,15,31,6.70
2007,02,04,15,32,6.70
2007,02,04,15,33,6.70
2007,02,04,15,34,6.70
2007,02,04,15,35,6.70
2007,02,04,15,36,6.70
2007,02,04,15,37,6.80
2007,02,04,15,38,6.80
2007,02,04,15,39,6.80
2007,02,04,15,40,6.80
2007,02,04,15,41,6.80
2007,02,04,15,42,6.80
2007,02,04,15,43,6.80
2007,02,04,15,44,6.80
2007,02,04,15,45,6.80
2007,02,04,15,46,6.80
2007,02,04,15,47,6.80
2007,02,04,15,48,6.80
2007,02,04,15,49,6.80
2007,02,04,15,50,6.80
2007,02,04,15,51,6.80
2007,02,04,15,52,6.80
2007,02,04,15,53,6.80
2007,02,04,15,54,6.80
2007,02,04,15,55,6.70
2007,02,04,15,56,6.70
2007,02,04,15,57,6.70
2007,02,04,15,58,6.70
2007,02,04,15,59,6.70
2007,02,04,16,00,6.70
2007,02,04,16,01,6.70
2007,02,04,16,02,6.70
2007,02,04,16,03,6.70
2007,02,04,16,04,6.70
2007,02,04,16,05,6.70
2007,02,04,16,06,6.70
2007,02,04,16,07,6.70
2007,02,04,16,08,6.70
2007,02,04,16,09,6.70
2007,02,04,16,10,6.70
2007,02,04,16,11,6.70
2007,02,04,16,12,6.70
2007,02,04,16,13,6.70
2007,02,04,16,14,6.70
2007,02,04,16,15,6.70
2007,02,04,16,16,6.70
2007,02,04,16,17,6.70
2007,02,04,16,18,6.70
2007,02,04,16,19,6.70
2007,02,04,16,20,6.70
2007,02,04,16,21,6.70
2007,02,04,16,22,6.70
2007,02,04,16,23,6.60
2007,02,04,16,24,6.60
2007,02,04,16,25,6.60
2007,02,04,16,26,6.60
2007,02,04,16,27,6.60
2007,02,04,16,28,6.60
2007,02,04,16,29,6.60
2007,02,04,16,30,6.60
2007,02,04,16,31,6.60
2007,02,04,16,32,6.60
2007,02,04,16,33,6.60
2007,02,04,16,34,6.60
2007,02,04,16,35,6.60
2007,02,04,16,36,6.60
2007,02,04,16,37,6.60
2007,02,04,16,38,6.60
2007,02,04,16,39,6.60
2007,02,04,16,40,6.60
2007,02,04,16,41,6.60
2007,02,04,16,42,6.60
2007,02,04,16,43,6.60
2007,02,04,16,44,6.60
2007,02,04,16,45,6.60
2007,02,04,16,46,6.60
2007,02,04,16,47,6.60
2007,02,04,16,48,6.60
2007,02,04,16,49,6.60
2007,02,04,16,50,6.60
2007,02,04,16,51,6.60
2007,02,04,16,52,6.60
2007,02,04,16,53,6.50
2007,02,04,16,54,6.50
2007,02,04,16,55,6.50
2007,02,04,16,56,6.50
2007,02,04,16,57,6.50
2007,02,04,16,58,6.50
2007,02,04,16,59,6.50
2007,02,04,17,00,6.50
2007,02,04,17,01,6.50
2007,02,04,17,02,6.50
2007,02,04,17,03,6.50
2007,02,04,17,04,6.50
2007,02,04,17,05,6.50
2007,02,04,17,06,6.50
2007,02,04,17,07,6.50
2007,02,04,17,08,6.50
2007,02,04,17,09,6.60
2007,02,04,17,10,6.60
2007,02,04,17,11,6.60
2007,02,04,17,12,6.50
2007,02,04,17,13,6.60
2007,02,04,17,14,6.60
2007,02,04,17,15,6.60
2007,02,04,17,16,6.60
2007,02,04,17,17,6.60
2007,02,04,17,18,6.60
2007,02,04,17,19,6.50
2007,02,04,17,20,6.60
2007,02,04,17,21,6.60
2007,02,04,17,22,6.60
2007,02,04,17,23,6.60
2007,02,04,17,24,6.60
2007,02,04,17,25,6.60
2007,02,04,17,26,6.60
2007,02,04,17,27,6.60
2007,02,04,17,28,6.60
2007,02,04,17,29,6.60
2007,02,04,17,30,6.60
2007,02,04,17,31,6.50
2007,02,04,17,32,6.60
2007,02,04,17,33,6.60
2007,02,04,17,34,6.60
2007,02,04,17,35,6.60
2007,02,04,17,36,6.60
2007,02,04,17,37,6.60
2007,02,04,17,38,6.60
2007,02,04,17,39,6.50
2007,02,04,17,40,6.50
2007,02,04,17,41,6.50
2007,02,04,17,42,6.50
2007,02,04,17,43,6.50
2007,02,04,17,44,6.50
2007,02,04,17,45,6.50
2007,02,04,17,46,6.50
2007,02,04,17,47,6.50
2007,02,04,17,48,6.50
2007,02,04,17,49,6.50
2007,02,04,17,50,6.50
2007,02,04,17,51,6.50
2007,02,04,17,52,6.50
2007,02,04,17,53,6.40
2007,02,04,17,54,6.40
2007,02,04,17,55,6.40
2007,02,04,17,56,6.40
2007,02,04,17,57,6.40
2007,02,04,17,58,6.40
2007,02,04,17,59,6.40
2007,02,04,18,00,6.40
2007,02,04,18,01,6.40
2007,02,04,18,02,6.40
2007,02,04,18,03,6.40
2007,02,04,18,04,6.40
2007,02,04,18,05,6.40
2007,02,04,18,06,6.40
2007,02,04,18,07,6.40
2007,02,04,18,08,6.40
2007,02,04,18,09,6.40
2007,02,04,18,10,6.40
2007,02,04,18,11,6.40
2007,02,04,18,12,6.40
2007,02,04,18,13,6.40
2007,02,04,18,14,6.40
2007,02,04,18,15,6.40
2007,02,04,18,16,6.40
2007,02,04,18,17,6.40
2007,02,04,18,18,6.50
2007,02,04,18,19,6.50
2007,02,04,18,20,6.50
2007,02,04,18,21,6.50
2007,02,04,18,22,6.50
2007,02,04,18,23,6.50
2007,02,04,18,24,6.50
2007,02,04,18,25,6.50
2007,02,04,18,26,6.50
2007,02,04,18,27,6.50
2007,02,04,18,28,6.40
2007,02,04,18,29,6.40
2007,02,04,18,30,6.40
2007,02,04,18,31,6.40
2007,02,04,18,32,6.40
2007,02,04,18,33,6.40
2007,02,04,18,34,6.40
2007,02,04,18,35,6.40
2007,02,04,18,36,6.40
2007,02,04,18,37,6.40
2007,02,04,18,38,6.40
2007,02,04,18,39,6.40
2007,02,04,18,40,6.40
2007,02,04,18,41,6.40
2007,02,04,18,42,6.40
2007,02,04,18,43,6.40
2007,02,04,18,44,6.40
2007,02,04,18,45,6.40
2007,02,04,18,46,6.40
2007,02,04,18,47,6.40
2007,02,04,18,48,6.40
2007,02,04,18,49,6.50
2007,02,04,18,50,6.40
2007,02,04,18,51,6.40
2007,02,04,18,52,6.40
2007,02,04,18,53,6.40
2007,02,04,18,54,6.40
2007,02,04,18,55,6.40
2007,02,04,18,56,6.50
2007,02,04,18,57,6.50
2007,02,04,18,58,6.50
2007,02,04,18,59,6.50
2007,02,04,19,00,6.50
2007,02,04,19,01,6.50
2007,02,04,19,02,6.50
2007,02,04,19,03,6.50
2007,02,04,19,04,6.50
2007,02,04,19,05,6.50
2007,02,04,19,06,6.50
2007,02,04,19,07,6.50
2007,02,04,19,08,6.50
2007,02,04,19,09,6.50
2007,02,04,19,10,6.50
2007,02,04,19,11,6.50
2007,02,04,19,12,6.50
2007,02,04,19,13,6.50
2007,02,04,19,14,6.50
2007,02,04,19,15,6.50
2007,02,04,19,16,6.50
2007,02,04,19,17,6.50
2007,02,04,19,18,6.50
2007,02,04,19,19,6.50
2007,02,04,19,20,6.50
2007,02,04,19,21,6.50
2007,02,04,19,22,6.50
2007,02,04,19,23,6.50
2007,02,04,19,24,6.50
2007,02,04,19,25,6.50
2007,02,04,19,26,6.50
2007,02,04,19,27,6.50
2007,02,04,19,28,6.50
2007,02,04,19,29,6.50
2007,02,04,19,30,6.50
2007,02,04,19,31,6.50
2007,02,04,19,32,6.50
2007,02,04,19,33,6.50
2007,02,04,19,34,6.50
2007,02,04,19,35,6.50
2007,02,04,19,36,6.50
2007,02,04,19,37,6.50
2007,02,04,19,38,6.50
2007,02,04,19,39,6.50
2007,02,04,19,40,6.50
2007,02,04,19,41,6.50
2007,02,04,19,42,6.50
2007,02,04,19,43,6.50
2007,02,04,19,44,6.50
2007,02,04,19,45,6.50
2007,02,04,19,46,6.50
2007,02,04,19,47,6.50
2007,02,04,19,48,6.50
2007,02,04,19,49,6.50
2007,02,04,19,50,6.50
2007,02,04,19,51,6.50
2007,02,04,19,52,6.50
2007,02,04,19,53,6.60
2007,02,04,19,54,6.60
2007,02,04,19,55,6.50
2007,02,04,19,56,6.60
2007,02,04,19,57,6.60
2007,02,04,19,58,6.60
2007,02,04,19,59,6.60
2007,02,04,20,00,6.60
2007,02,04,20,01,6.60
2007,02,04,20,02,6.60
2007,02,04,20,03,6.60
2007,02,04,20,04,6.60